User: anonymous   Login
Location: The Saddle
(36.8333°N, 80.3417°W)
Time: 10:10:56
(UTC-04:00)
Language:

AO-7 - Orbit

View from above orbital plane
View from above orbital plane
View from above satellite
View from above satellite

Ground track
Ground track

The orbit data is extracted from the following two-line orbital elements,

1  7530U 74089B   23270.97021789 -.00000019  00000-0  17341-3 0  9990
2  7530 101.9586 258.3760 0011888 226.6161 200.2689 12.53667402236293
Epoch (UTC): 27 September 2023 23:17:06
Eccentricity: 0.0011888
inclination: 101.9586°
perigee height: 1440 km
apogee height: 1458 km
right ascension of ascending node: 258.3760°
argument of perigee: 226.6161°
revolutions per day: 12.53667402
mean anomaly at epoch: 200.2689°
orbit number at epoch: 23629

The dashed part of the orbit path shows where the satellite is in the earth's shadow,  

DLR